Change the Weather History Date:

Tuesday, March 6, 2012

  Actual Average Record
Temperature  
Mean Temperature 28 °F -  
Max Temperature 39 °F 44 °F 66 °F (1976)
Min Temperature 17 °F 27 °F 7 °F (2007)
Degree Days  
Heating Degree Days 37    
Moisture  
Dew Point 12 °F    
Average Humidity 50    
Maximum Humidity 79    
Minimum Humidity 27    
Precipitation  
Precipitation 0.00 in - - ()
Sea Level Pressure  
Sea Level Pressure 30.55 in    
Wind  
Wind Speed 4 mph (WSW)    
Max Wind Speed 10 mph    
Max Gust Speed -    
Visibility 10 miles    
Events      
Averages and records for this station are not official NWS values.
T = Trace of Precipitation, MM = Missing Value Source: NWS Daily Summary

Daily Weather History Graph

Daily Weather History Graph

Search for Another Location

Airport or City:

Trip Planner

Search our weather history database for the weather conditions in past years. The results will help you decide how hot, cold, wet, or windy it might be!

Date:

Astronomy

Mar. 06, 2012 Rise Set
Actual Time 6:19 AM EST 5:50 PM EST
Civil Twilight 5:52 AM EST 6:18 PM EST
Nautical Twilight 5:20 AM EST 6:50 PM EST
Astronomical Twilight 4:48 AM EST 7:22 PM EST
Moon 4:13 PM EST (3/6) 4:54 AM EST (3/6)
Length of Visible Light 12h 26m
Length of Day
11h 31m
Waxing Gibbous, 96% of the Moon is Illuminated
Mar 6
Waxing Gibbous
Mar 8
Full
Mar 14
Last Quarter
Mar 22
New
Mar 30
First Quarter

Hourly Weather History & Observations

Time (EST) Temp. Windchill Dew Point Humidity Pressure Visibility Wind Dir Wind Speed Gust Speed Precip Events Conditions
12:53 AM 21.9 °F 14.5 °F 5.0 °F 48% 30.40 in 10.0 mi NNW 5.8 mph - N/A   Clear
1:53 AM 21.0 °F - 6.1 °F 53% 30.42 in 10.0 mi Calm Calm - N/A   Clear
2:53 AM 21.0 °F 14.6 °F 7.0 °F 55% 30.43 in 10.0 mi NW 4.6 mph - N/A   Clear
3:53 AM 19.0 °F - 8.1 °F 62% 30.46 in 10.0 mi Calm Calm - N/A   Clear
4:53 AM 19.0 °F - 9.0 °F 65% 30.50 in 10.0 mi Calm Calm - N/A   Clear
5:53 AM 19.0 °F - 8.1 °F 62% 30.53 in 10.0 mi Calm Calm - N/A   Clear
6:53 AM 17.1 °F 11.7 °F 10.0 °F 74% 30.56 in 10.0 mi WSW 3.5 mph - N/A   Clear
7:53 AM 24.1 °F 17.0 °F 10.0 °F 55% 30.58 in 10.0 mi NW 5.8 mph - N/A   Clear
8:53 AM 27.0 °F 19.5 °F 10.0 °F 49% 30.62 in 10.0 mi NNW 6.9 mph - N/A   Clear
9:53 AM 28.9 °F 22.8 °F 10.0 °F 45% 30.63 in 10.0 mi Variable 5.8 mph - N/A   Clear
10:53 AM 32.0 °F 28.7 °F 8.1 °F 37% 30.61 in 10.0 mi WNW 3.5 mph - N/A   Clear
11:53 AM 34.0 °F - 6.1 °F 31% 30.62 in 10.0 mi Calm Calm - N/A   Clear
12:53 PM 37.9 °F 33.5 °F 7.0 °F 28% 30.58 in 10.0 mi Variable 5.8 mph - N/A   Clear
1:53 PM 39.0 °F 34.0 °F 9.0 °F 29% 30.56 in 10.0 mi North 6.9 mph - N/A   Scattered Clouds
2:53 PM 37.9 °F 35.5 °F 7.0 °F 28% 30.55 in 10.0 mi Variable 3.5 mph - N/A   Clear
3:53 PM 39.9 °F 33.9 °F 8.1 °F 27% 30.56 in 10.0 mi WSW 9.2 mph - N/A   Clear
4:53 PM 39.9 °F 35.1 °F 9.0 °F 28% 30.55 in 10.0 mi SW 6.9 mph - N/A   Clear
6:53 PM 36.0 °F 29.6 °F 12.0 °F 37% 30.57 in 10.0 mi South 8.1 mph - N/A   Clear
7:53 PM 34.0 °F 27.2 °F 19.9 °F 56% 30.58 in 10.0 mi South 8.1 mph - N/A   Clear
8:53 PM 34.0 °F 26.0 °F 24.1 °F 67% 30.58 in 10.0 mi South 10.4 mph - N/A   Clear
9:53 PM 34.0 °F 31.0 °F 25.0 °F 70% 30.59 in 10.0 mi South 3.5 mph - N/A   Scattered Clouds
10:53 PM 34.0 °F 28.8 °F 27.0 °F 75% 30.58 in 10.0 mi South 5.8 mph - N/A   Clear
11:53 PM 30.9 °F 26.2 °F 25.0 °F 79% 30.58 in 10.0 mi South 4.6 mph - N/A   Clear